[ hide orbit diagram ]
For accurate long-term ephemerides, please instead use our Horizons system.This orbit viewer was implemented using two-body methods, and hence should not be used for determining accurate long-term trajectories (over several years or decades) or planetary encounter circumstances.
Orbital Elements at Epoch 2459000.5 (2020-May-31.0) TDB
Reference: JPL 13 (heliocentric ecliptic J2000)
Element | Value | Uncertainty (1-sigma) | Units |
e | .1442985536233779 | 7.1741e-08 | |
a | 2.703831908111459 | 3.2341e-08 | au |
q | 2.313672874530237 | 2.1167e-07 | au |
i | 5.946498755259805 | 7.0441e-06 | deg |
node | 148.4723818378265 | 5.1393e-05 | deg |
peri | 190.3617600070424 | 5.7187e-05 | deg |
M | 320.3680805161022 | 2.2316e-05 | deg |
tp | 2459179.276555874951 (2020-Nov-25.77655587) | 0.00010092 | TDB |
period | 1623.9324502345 4.45 | 2.9136e-05 7.977e-08 | d yr |
n | .2216840977271038 | 3.9774e-09 | deg/d |
Q | 3.09399094169268 | 3.7008e-08 | au |
|
| | Orbit Determination Parameters
Additional Information
|
[ show covariance matrix ]
Physical Parameter Table
Parameter |
Symbol |
Value |
Units |
Sigma |
Reference |
Notes |
absolute magnitude |
H |
17.0 |
|
n/a |
MPO434608 |
|
|
437227 (2012 XG5) Discovered 2007-Sep-14 by Spacewatch at Kitt Peak |
Reference: | Last Updated: 2015-06-04 |
|
|